sat.trackr.live / text

‹ back to catalog

MEXSAT 3

NORAD 39035 · 2012-075B

PAYLOAD ACTIVE UNKNOWN

§ Identity

Operator
Country
MEX
Launch date
2012-12-19
Launch site
FRGUI
Launch vehicle
Mass (kg)
RCS (m²)
79.45

Purposes: comms

External: N2YO · Heavens-Above · Gunter

§ Orbital elements

Epoch: 2026-09-18T21:36:34.153056Z

Period
1,436.08 min
Inclination
0.0163°
Eccentricity
0.0001579
Mean motion
1.00272773 rev/d
Perigee alt
35,779.7 km
Apogee alt
35,793.0 km
Semi-major
42,164.5 km
B*
0.0000e+0
RAAN
113.2666°
Arg perigee
122.5761°
Mean anomaly
331.3673°
Rev number
799

§ Raw data

MEXSAT 31 39035U 12075B   26261.90039529 -.00000030  00000+0  00000+0 0  99912 39035   0.0163 113.2666 0001579 122.5761 331.3673  1.00272773  7993

JSON: /api/v1/satellites/39035 · /tle

For live sub-satellite position, see the globe view (requires WebGL).

§ Visibility from observer

Set your observer location to see the next 7 days of passes ≥ 10°. The values pass through the URL so the page stays shareable.

No JS? Fill the form by hand. The geolocation button needs JavaScript.